Date String (YYYY-MM-DD hh:mm:ss) UTC,Instrument flags,Ambient pressure (hPa),Sample flow (lpm),Bypass flow (lpm),Sample temperature (°C),Ambient temperature (°C),ASC tube jacket temperature (°C),LED temperature (°C),Box temperature (°C),Sample RH (%),Span deviation,Mass concentration (μg/m³),Mass concentration (μg/m³),Mass concentration (μg/m³)
DateTimeUTC,F1_M11,P_M11,Q1_M11,Q2_M11,T1_M11,T2_M11,T3_M11,T4_M11,T5_M11,U1_M11,ZSPAN_M11,X2_M11,X0_M11,X1_M11
2023-02-19 14:00:00,,0821.0,4.99,0.00,21.9,20.0,00.0,31.0,23.4,11.4,0000.0,0002.85,0008.14,0001.61
2023-02-19 14:01:00,,0821.0,4.99,0.00,21.9,19.9,00.0,30.9,23.4,11.5,0000.0,0002.83,0008.01,0001.60
2023-02-19 14:02:00,,0821.0,4.99,0.00,21.8,19.9,00.0,30.9,23.4,11.5,0000.0,0002.81,0007.95,0001.59
2023-02-19 14:03:00,,0821.1,4.99,0.00,21.9,20.9,00.0,30.8,23.6,11.5,0000.0,0002.81,0007.77,0001.60
2023-02-19 14:04:00,,0821.1,4.98,0.00,22.0,22.2,00.0,30.8,23.9,11.4,0000.0,0002.84,0007.46,0001.60
2023-02-19 14:05:00,,0821.1,4.91,0.00,22.1,22.9,00.0,30.8,24.1,11.3,0000.0,0002.81,0007.20,0001.61
2023-02-19 14:06:00,,0821.1,5.01,0.00,22.2,22.3,00.0,30.9,24.1,11.4,0000.0,0002.76,0006.86,0001.62
2023-02-19 14:07:00,,0821.0,4.98,0.00,22.2,21.8,00.0,30.9,24.0,11.3,0000.0,0002.65,0007.11,0001.62
2023-02-19 14:08:00,,0821.1,4.98,0.00,22.2,21.3,00.0,31.0,23.9,11.3,0000.0,0002.66,0007.63,0001.62
2023-02-19 14:09:00,,0821.0,5.01,0.00,22.1,21.0,00.0,31.0,23.8,11.3,0000.0,0002.60,0007.56,0001.64
2023-02-19 14:10:00,,0821.0,4.99,0.00,22.1,20.7,00.0,31.0,23.8,11.3,0000.0,0002.60,0005.93,0001.66
2023-02-19 14:11:00,,0821.0,5.00,0.00,22.1,20.5,00.0,31.0,23.7,11.3,0000.0,0002.66,0006.16,0001.69
2023-02-19 14:12:00,,0821.0,5.01,0.00,22.0,20.3,00.0,31.0,23.6,11.4,0000.0,0002.71,0006.34,0001.70
2023-02-19 14:13:00,,0821.1,5.00,0.00,22.0,20.3,00.0,31.0,23.6,11.4,0000.0,0002.74,0006.43,0001.73
2023-02-19 14:14:00,,0821.0,5.00,0.00,22.0,20.1,00.0,31.0,23.6,11.5,0000.0,0002.77,0006.44,0001.74
2023-02-19 14:15:00,,0821.0,4.99,0.00,21.9,20.0,00.0,30.9,23.5,11.4,0000.0,0002.77,0006.49,0001.74
2023-02-19 14:16:00,,0821.0,5.01,0.00,21.9,19.9,00.0,30.9,23.4,11.2,0000.0,0002.76,0006.94,0001.73
2023-02-19 14:17:00,,0821.0,5.00,0.00,21.9,20.5,00.0,30.9,23.5,11.3,0000.0,0002.77,0007.19,0001.75
2023-02-19 14:18:00,,0821.0,4.97,0.00,22.0,22.0,00.0,30.8,23.9,11.2,0000.0,0002.80,0006.78,0001.74
2023-02-19 14:19:00,,0821.0,5.00,0.00,22.2,23.0,00.0,30.8,24.2,11.2,0000.0,0002.83,0006.13,0001.76
2023-02-19 14:20:00,,0821.0,4.98,0.00,22.2,22.8,00.0,30.9,24.2,11.4,0000.0,0002.84,0006.11,0001.75
2023-02-19 14:21:00,,0821.0,4.99,0.00,22.3,22.2,00.0,30.9,24.1,11.2,0000.0,0002.90,0006.26,0001.74
2023-02-19 14:22:00,,0821.0,4.99,0.00,22.2,21.7,00.0,31.0,24.0,11.2,0000.0,0002.90,0006.19,0001.74
2023-02-19 14:23:00,,0821.0,4.97,0.00,22.2,21.2,00.0,31.0,23.9,11.3,0000.0,0002.90,0007.38,0001.74
2023-02-19 14:24:00,,0821.1,4.99,0.00,22.2,20.9,00.0,31.0,23.8,11.4,0000.0,0002.86,0007.41,0001.73
2023-02-19 14:25:00,,0821.0,5.02,0.00,22.1,20.7,00.0,31.0,23.8,11.5,0000.0,0002.87,0007.55,0001.72
2023-02-19 14:26:00,,0821.1,5.00,0.00,22.1,20.5,00.0,31.0,23.7,11.5,0000.0,0002.83,0007.50,0001.71
2023-02-19 14:27:00,,0821.0,4.99,0.00,22.1,20.3,00.0,31.0,23.6,11.5,0000.0,0002.86,0007.23,0001.72
2023-02-19 14:28:00,,0821.0,4.99,0.00,22.0,20.1,00.0,31.0,23.6,11.4,0000.0,0002.90,0007.15,0001.71
2023-02-19 14:29:00,,0821.0,5.00,0.00,22.0,20.0,00.0,31.0,23.5,11.4,0000.0,0002.95,0007.38,0001.72
2023-02-19 14:30:00,,0821.0,5.00,0.00,21.9,19.9,00.0,31.0,23.5,11.5,0000.0,0002.97,0007.46,0001.72
2023-02-19 14:31:00,,0821.0,5.00,0.00,21.9,20.1,00.0,30.9,23.4,11.4,0000.0,0003.00,0007.64,0001.73
2023-02-19 14:32:00,,0821.1,5.02,0.00,22.0,21.5,00.0,30.8,23.7,11.4,0000.0,0002.99,0007.64,0001.73
2023-02-19 14:33:00,,0821.1,5.01,0.00,22.1,23.0,00.0,30.8,24.2,11.5,0000.0,0002.97,0007.99,0001.74
2023-02-19 14:34:00,,0821.0,5.06,0.00,22.3,23.5,00.0,30.9,24.4,11.4,0000.0,0002.93,0007.63,0001.73
2023-02-19 14:35:00,,0821.0,5.00,0.00,22.3,22.7,00.0,31.0,24.2,11.4,0000.0,0002.99,0007.54,0001.73
2023-02-19 14:36:00,,0821.0,4.99,0.00,22.3,22.0,00.0,31.0,24.1,11.4,0000.0,0003.02,0007.47,0001.74
2023-02-19 14:37:00,,0821.0,4.99,0.00,22.3,21.5,00.0,31.0,24.0,11.3,0000.0,0003.04,0007.44,0001.74
2023-02-19 14:38:00,,0821.0,4.98,0.00,22.2,21.1,00.0,31.1,23.8,11.4,0000.0,0003.01,0007.45,0001.73
2023-02-19 14:39:00,,0821.0,5.02,0.00,22.2,20.8,00.0,31.1,23.8,11.2,0000.0,0002.92,0007.38,0001.71
2023-02-19 14:40:00,,0821.0,5.00,0.00,22.1,20.5,00.0,31.1,23.7,11.3,0000.0,0002.83,0007.08,0001.69
2023-02-19 14:41:00,,0821.0,5.01,0.00,22.1,20.3,00.0,31.1,23.6,11.3,0000.0,0002.74,0006.81,0001.66
2023-02-19 14:42:00,,0821.1,4.99,0.00,22.0,20.2,00.0,31.1,23.5,11.5,0000.0,0002.70,0006.41,0001.66
2023-02-19 14:43:00,,0821.1,5.01,0.00,22.0,20.1,00.0,31.0,23.5,11.5,0000.0,0002.72,0006.43,0001.66
2023-02-19 14:44:00,,0821.1,5.01,0.00,21.9,19.9,00.0,31.0,23.4,11.4,0000.0,0002.73,0006.11,0001.65
2023-02-19 14:45:00,,0821.1,4.99,0.00,21.9,19.9,00.0,31.0,23.4,11.3,0000.0,0002.67,0005.18,0001.65
2023-02-19 14:46:00,,0821.1,5.01,0.00,21.8,20.1,00.0,30.9,23.4,11.3,0000.0,0002.62,0005.04,0001.65
2023-02-19 14:47:00,,0821.1,4.99,0.00,21.9,21.5,00.0,30.9,23.8,11.4,0000.0,0002.58,0004.91,0001.65
2023-02-19 14:48:00,,0821.1,4.94,0.00,22.1,22.9,00.0,30.8,24.1,11.4,0000.0,0002.56,0004.95,0001.65
2023-02-19 14:49:00,,0821.1,4.95,0.00,22.2,23.1,00.0,30.9,24.2,11.4,0000.0,0002.62,0006.54,0001.66
2023-02-19 14:50:00,,0821.1,4.99,0.00,22.2,22.3,00.0,31.0,24.1,11.3,0000.0,0002.67,0006.92,0001.68
2023-02-19 14:51:00,,0821.1,5.00,0.00,22.2,21.7,00.0,31.0,23.9,11.2,0000.0,0002.75,0007.87,0001.69
2023-02-19 14:52:00,,0821.2,4.99,0.00,22.2,21.3,00.0,31.0,23.8,11.1,0000.0,0002.81,0008.88,0001.69
2023-02-19 14:53:00,,0821.1,5.02,0.00,22.1,21.0,00.0,31.0,23.7,11.4,0000.0,0002.86,0009.44,0001.68
2023-02-19 14:54:00,,0821.1,5.00,0.00,22.1,20.7,00.0,31.0,23.7,11.6,0000.0,0002.84,0009.41,0001.69
2023-02-19 14:55:00,,0821.2,4.99,0.00,22.0,20.5,00.0,31.0,23.6,11.4,0000.0,0002.83,0009.43,0001.69
2023-02-19 14:56:00,,0821.2,4.99,0.00,22.0,20.3,00.0,31.0,23.5,11.3,0000.0,0002.93,0009.58,0001.70
2023-02-19 14:57:00,,0821.2,4.98,0.00,22.0,20.1,00.0,31.0,23.4,11.3,0000.0,0002.95,0009.62,0001.69
2023-02-19 14:58:00,,0821.3,5.00,0.00,21.9,20.0,00.0,31.0,23.4,11.3,0000.0,0003.00,0010.15,0001.68
2023-02-19 14:59:00,,0821.4,4.98,0.00,21.9,20.0,00.0,31.0,23.4,11.5,0000.0,0003.02,0010.66,0001.68
